�������l�o���
Date,Time,MP-1(��Sv/h),MP-2(��Sv/h),MP-3(��Sv/h),MP-4(��Sv/h),MP-5(��Sv/h),MP-6(��Sv/h),MP-7(��Sv/h),MP-8(��Sv/h),����,����(m/s),���J
2023/07/05,00:00,0.536,0.814,0.493,0.971,0.713,0.325,0.568,0.534,-,CALM,��
2023/07/05,00:10,0.536,0.812,0.495,0.971,0.714,0.326,0.570,0.536,-,CALM,��
2023/07/05,00:20,0.535,0.814,0.495,0.970,0.715,0.327,0.569,0.535,-,CALM,��
2023/07/05,00:30,0.536,0.812,0.493,0.970,0.713,0.327,0.570,0.534,-,CALM,��
2023/07/05,00:40,0.536,0.813,0.493,0.970,0.714,0.325,0.570,0.533,-,CALM,��
2023/07/05,00:50,0.535,0.814,0.492,0.971,0.715,0.326,0.569,0.535,-,CALM,��
2023/07/05,01:00,0.535,0.813,0.494,0.971,0.713,0.326,0.571,0.533,-,CALM,��
2023/07/05,01:10,0.535,0.814,0.494,0.973,0.713,0.326,0.570,0.534,-,CALM,��
2023/07/05,01:20,0.534,0.813,0.493,0.970,0.714,0.326,0.571,0.536,�쐼,0.6,��
2023/07/05,01:30,0.535,0.812,0.494,0.971,0.711,0.325,0.570,0.535,��,0.6,��
2023/07/05,01:40,0.537,0.813,0.494,0.970,0.713,0.326,0.571,0.535,�쐼,0.6,��
2023/07/05,01:50,0.535,0.813,0.494,0.971,0.716,0.326,0.571,0.536,�쐼,0.9,��
2023/07/05,02:00,0.536,0.813,0.494,0.973,0.712,0.326,0.572,0.535,��쐼,0.9,��
2023/07/05,02:10,0.536,0.812,0.495,0.972,0.713,0.326,0.571,0.535,-,CALM,��
2023/07/05,02:20,0.537,0.812,0.494,0.972,0.715,0.328,0.571,0.533,��,0.6,��
2023/07/05,02:30,0.535,0.814,0.494,0.972,0.713,0.326,0.572,0.534,��쐼,0.8,��
2023/07/05,02:40,0.538,0.813,0.493,0.973,0.714,0.326,0.572,0.535,��쐼,0.8,��
2023/07/05,02:50,0.537,0.814,0.493,0.974,0.712,0.326,0.573,0.535,��,0.8,��
2023/07/05,03:00,0.537,0.815,0.493,0.972,0.715,0.326,0.573,0.534,��쐼,0.9,��
2023/07/05,03:10,0.536,0.814,0.495,0.973,0.714,0.326,0.572,0.536,�쐼,0.9,��
2023/07/05,03:20,0.536,0.814,0.494,0.973,0.714,0.326,0.571,0.535,��쐼,0.9,��
2023/07/05,03:30,0.536,0.815,0.494,0.972,0.715,0.327,0.573,0.536,�쐼,0.9,��
2023/07/05,03:40,0.538,0.814,0.494,0.973,0.715,0.326,0.573,0.534,��쐼,0.9,��
2023/07/05,03:50,0.535,0.814,0.494,0.973,0.714,0.326,0.572,0.534,-,CALM,��
2023/07/05,04:00,0.537,0.813,0.493,0.972,0.716,0.326,0.573,0.535,-,CALM,��
2023/07/05,04:10,0.536,0.813,0.493,0.973,0.714,0.326,0.572,0.535,�k�k��,1.1,��
2023/07/05,04:20,0.537,0.815,0.494,0.973,0.715,0.326,0.573,0.535,�k�k��,0.9,��
2023/07/05,04:30,0.536,0.815,0.494,0.972,0.715,0.326,0.572,0.535,�k�k��,1.1,��
2023/07/05,04:40,0.536,0.812,0.493,0.972,0.716,0.326,0.572,0.534,-,CALM,��
2023/07/05,04:50,0.538,0.813,0.493,0.973,0.717,0.326,0.571,0.536,-,CALM,��
2023/07/05,05:00,0.536,0.813,0.494,0.973,0.714,0.326,0.570,0.537,�k�k��,0.6,��
2023/07/05,05:10,0.537,0.813,0.493,0.974,0.713,0.327,0.571,0.536,-,CALM,��
2023/07/05,05:20,0.536,0.813,0.495,0.973,0.716,0.327,0.572,0.534,-,CALM,��
2023/07/05,05:30,0.537,0.815,0.496,0.974,0.714,0.326,0.572,0.535,��쓌,0.9,��
2023/07/05,05:40,0.537,0.815,0.495,0.972,0.716,0.328,0.571,0.535,��쓌,1.2,��
2023/07/05,05:50,0.536,0.814,0.494,0.973,0.715,0.325,0.573,0.535,��,0.6,��
2023/07/05,06:00,0.537,0.814,0.494,0.973,0.714,0.328,0.571,0.536,��쓌,1.1,��
2023/07/05,06:10,0.536,0.815,0.493,0.974,0.713,0.327,0.571,0.535,��쓌,1.5,��
2023/07/05,06:20,0.537,0.814,0.492,0.969,0.715,0.327,0.573,0.536,��쓌,1.7,��
2023/07/05,06:30,0.537,0.813,0.493,0.971,0.714,0.326,0.571,0.534,��쓌,1.4,��
2023/07/05,06:40,0.535,0.810,0.493,0.971,0.715,0.327,0.572,0.538,��쓌,1.7,��
2023/07/05,06:50,0.536,0.811,0.492,0.972,0.714,0.324,0.571,0.535,��쓌,1.9,��
2023/07/05,07:00,0.534,0.812,0.493,0.970,0.714,0.325,0.571,0.534,��,1.9,��
2023/07/05,07:10,0.535,0.813,0.493,0.968,0.714,0.325,0.570,0.536,��,2.2,��
2023/07/05,07:20,0.535,0.812,0.494,0.970,0.715,0.324,0.571,0.534,�쓌,2.0,��
2023/07/05,07:30,0.533,0.811,0.493,0.972,0.714,0.325,0.570,0.534,��쓌,2.6,��
2023/07/05,07:40,0.536,0.810,0.492,0.970,0.713,0.325,0.570,0.535,��쓌,3.8,��
2023/07/05,07:50,0.534,0.811,0.493,0.972,0.712,0.325,0.569,0.535,�쓌,3.4,��
2023/07/05,08:00,0.536,0.813,0.495,0.973,0.715,0.325,0.570,0.533,�쓌,2.9,��
2023/07/05,08:10,0.534,0.812,0.494,0.971,0.712,0.324,0.569,0.532,�쓌,2.9,��
2023/07/05,08:20,0.536,0.813,0.492,0.970,0.712,0.326,0.571,0.532,��쓌,2.3,��
2023/07/05,08:30,0.536,0.812,0.492,0.972,0.712,0.325,0.570,0.534,�쓌,2.3,��
2023/07/05,08:40,0.536,0.811,0.493,0.971,0.712,0.324,0.570,0.534,�쓌,3.5,��
2023/07/05,08:50,0.535,0.812,0.493,0.973,0.715,0.324,0.570,0.535,���쓌,3.2,��
2023/07/05,09:00,0.536,0.812,0.492,0.971,0.711,0.323,0.570,0.532,�쓌,4.0,��
2023/07/05,09:10,0.535,0.811,0.492,0.972,0.711,0.326,0.570,0.533,�쓌,3.4,��
2023/07/05,09:20,0.534,0.812,0.493,0.971,0.713,0.325,0.570,0.534,��쓌,4.1,��
2023/07/05,09:30,0.534,0.813,0.483,0.973,0.712,0.325,0.569,0.534,�쓌,5.1,��
2023/07/05,09:40,0.536,0.813,0.489,0.972,0.712,0.326,0.568,0.533,���쓌,3.4,��
2023/07/05,09:50,0.534,0.814,0.490,0.971,0.713,0.325,0.570,0.533,�쓌,4.4,��
2023/07/05,10:00,0.535,0.811,0.491,0.971,0.712,0.324,0.568,0.533,��쓌,4.3,��
2023/07/05,10:10,0.536,0.811,0.491,0.973,0.712,0.324,0.569,0.533,��쓌,5.1,��
2023/07/05,10:20,0.534,0.813,0.490,0.974,0.713,0.325,0.567,0.531,��쓌,4.8,��
2023/07/05,10:30,0.536,0.813,0.492,0.972,0.715,0.325,0.568,0.534,��쓌,7.3,��
2023/07/05,10:40,0.534,0.812,0.493,0.972,0.714,0.326,0.571,0.534,��쓌,6.3,��
2023/07/05,10:50,0.535,0.812,0.493,0.973,0.714,0.326,0.569,0.532,��쓌,7.9,��
2023/07/05,11:00,0.536,0.814,0.493,0.973,0.715,0.326,0.569,0.534,��쓌,10.5,��
2023/07/05,11:10,0.536,0.813,0.491,0.972,0.714,0.325,0.571,0.533,��쓌,9.7,��
2023/07/05,11:20,0.535,0.813,0.493,0.971,0.715,0.326,0.571,0.534,��쓌,8.9,��
2023/07/05,11:30,0.536,0.815,0.493,0.970,0.716,0.326,0.570,0.534,��쓌,10.0,��
2023/07/05,11:40,0.536,0.813,0.493,0.969,0.716,0.325,0.571,0.533,��쓌,9.3,��
2023/07/05,11:50,0.535,0.813,0.493,0.969,0.716,0.326,0.571,0.534,��쓌,11.6,��
2023/07/05,12:00,0.536,0.815,0.493,0.971,0.716,0.326,0.571,0.532,��쓌,9.8,��
2023/07/05,12:10,0.535,0.814,0.493,0.974,0.716,0.326,0.568,0.535,��쓌,11.8,��
2023/07/05,12:20,0.536,0.816,0.492,0.972,0.716,0.326,0.570,0.535,��쓌,9.9,��
2023/07/05,12:30,0.536,0.816,0.495,0.971,0.716,0.325,0.568,0.535,��쓌,9.1,��
2023/07/05,12:40,0.536,0.816,0.494,0.973,0.716,0.326,0.570,0.534,��쓌,10.5,��
2023/07/05,12:50,0.539,0.817,0.493,0.975,0.716,0.325,0.569,0.534,��쓌,9.5,��
2023/07/05,13:00,0.537,0.815,0.496,0.972,0.715,0.325,0.569,0.534,��쓌,9.8,��
2023/07/05,13:10,0.538,0.816,0.496,0.970,0.716,0.328,0.568,0.536,��쓌,10.5,��
2023/07/05,13:20,0.537,0.815,0.494,0.972,0.716,0.325,0.569,0.535,��쓌,10.2,��
2023/07/05,13:30,0.536,0.816,0.494,0.972,0.716,0.324,0.569,0.535,��쓌,10.2,��
2023/07/05,13:40,0.534,0.817,0.494,0.972,0.716,0.326,0.569,0.534,��쓌,10.9,��
2023/07/05,13:50,0.535,0.815,0.496,0.973,0.717,0.326,0.570,0.534,��쓌,11.3,��
2023/07/05,14:00,0.535,0.816,0.494,0.971,0.717,0.326,0.572,0.536,��쓌,10.7,��
2023/07/05,14:10,0.535,0.816,0.495,0.971,0.717,0.325,0.569,0.535,��쓌,11.1,��
2023/07/05,14:20,0.537,0.815,0.494,0.973,0.716,0.325,0.569,0.535,��,9.4,��
2023/07/05,14:30,0.536,0.816,0.494,0.973,0.718,0.325,0.570,0.535,��,8.2,��
2023/07/05,14:40,0.536,0.815,0.493,0.974,0.719,0.326,0.569,0.534,��,8.0,��
2023/07/05,14:50,0.534,0.817,0.495,0.977,0.720,0.326,0.568,0.534,��,8.2,��
2023/07/05,15:00,0.536,0.816,0.495,0.977,0.719,0.326,0.569,0.535,��쓌,8.2,��
2023/07/05,15:10,0.535,0.817,0.495,0.976,0.720,0.327,0.568,0.535,��,7.3,��
2023/07/05,15:20,0.534,0.817,0.496,0.975,0.719,0.326,0.569,0.533,��,6.6,��
2023/07/05,15:30,0.536,0.816,0.496,0.977,0.719,0.325,0.570,0.536,��,6.7,��
2023/07/05,15:40,0.535,0.818,0.496,0.976,0.718,0.326,0.569,0.534,��쓌,7.8,��
2023/07/05,15:50,0.535,0.820,0.496,0.975,0.720,0.326,0.569,0.535,��쓌,9.2,��
2023/07/05,16:00,0.536,0.819,0.495,0.976,0.719,0.327,0.568,0.534,��,8.3,��
2023/07/05,16:10,0.534,0.819,0.496,0.977,0.718,0.326,0.569,0.536,��,8.2,��
2023/07/05,16:20,0.534,0.818,0.496,0.976,0.718,0.326,0.569,0.536,��쓌,9.8,��
2023/07/05,16:30,0.535,0.818,0.495,0.977,0.719,0.326,0.569,0.535,��쓌,8.8,��
2023/07/05,16:40,0.535,0.818,0.496,0.979,0.719,0.327,0.568,0.537,��쓌,8.8,��
2023/07/05,16:50,0.534,0.818,0.497,0.976,0.719,0.326,0.570,0.536,��쓌,8.9,��
2023/07/05,17:00,0.533,0.818,0.497,0.975,0.718,0.326,0.571,0.536,��,8.9,��
2023/07/05,17:10,0.534,0.818,0.496,0.975,0.720,0.326,0.572,0.537,��쓌,10.2,��
2023/07/05,17:20,0.533,0.819,0.496,0.976,0.719,0.327,0.570,0.538,��쓌,9.6,��
2023/07/05,17:30,0.534,0.817,0.495,0.975,0.720,0.326,0.570,0.536,��,8.9,��
2023/07/05,17:40,0.534,0.820,0.495,0.977,0.720,0.327,0.570,0.537,��쓌,8.0,�L
2023/07/05,17:50,0.533,0.819,0.496,0.977,0.719,0.326,0.572,0.538,��쓌,6.6,�L
2023/07/05,18:00,0.533,0.817,0.496,0.977,0.718,0.327,0.570,0.537,��,5.3,�L
2023/07/05,18:10,0.535,0.818,0.498,0.978,0.719,0.326,0.570,0.536,��,6.1,�L
2023/07/05,18:20,0.535,0.820,0.497,0.978,0.720,0.328,0.570,0.537,��,6.0,�L
2023/07/05,18:30,0.534,0.820,0.497,0.977,0.719,0.328,0.570,0.539,��,5.7,�L
2023/07/05,18:40,0.538,0.819,0.499,0.977,0.720,0.329,0.571,0.538,��,6.7,�L
2023/07/05,18:50,0.536,0.820,0.499,0.980,0.720,0.330,0.571,0.537,��,6.7,�L
2023/07/05,19:00,0.539,0.817,0.497,0.978,0.719,0.330,0.570,0.538,��,5.9,�L
2023/07/05,19:10,0.536,0.817,0.500,0.978,0.719,0.330,0.571,0.537,��쓌,7.0,�L
2023/07/05,19:20,0.538,0.818,0.499,0.978,0.719,0.330,0.570,0.537,��쓌,7.0,�L
2023/07/05,19:30,0.535,0.814,0.498,0.979,0.718,0.329,0.570,0.536,��,7.4,�L
2023/07/05,19:40,0.536,0.814,0.497,0.977,0.717,0.329,0.570,0.536,��,7.1,�L
2023/07/05,19:50,0.535,0.814,0.498,0.978,0.715,0.329,0.569,0.538,��,7.4,�L
2023/07/05,20:00,0.537,0.814,0.498,0.977,0.714,0.329,0.569,0.537,��,6.2,�L
2023/07/05,20:10,0.534,0.812,0.497,0.976,0.715,0.329,0.569,0.537,��,5.4,�L
2023/07/05,20:20,0.534,0.812,0.498,0.976,0.713,0.328,0.569,0.536,��,5.2,�L
2023/07/05,20:30,0.535,0.809,0.495,0.976,0.713,0.328,0.569,0.536,��,5.9,�L
2023/07/05,20:40,0.532,0.809,0.495,0.975,0.712,0.329,0.568,0.537,��,4.9,�L
2023/07/05,20:50,0.532,0.809,0.494,0.975,0.711,0.328,0.568,0.535,��,5.8,�L
2023/07/05,21:00,0.531,0.809,0.494,0.973,0.711,0.329,0.568,0.536,��,8.2,�L
2023/07/05,21:10,0.530,0.808,0.495,0.975,0.710,0.329,0.568,0.535,��,9.9,�L
2023/07/05,21:20,0.530,0.808,0.495,0.973,0.711,0.330,0.568,0.536,��,10.3,�L
2023/07/05,21:30,0.533,0.810,0.497,0.976,0.712,0.331,0.569,0.536,��,10.5,�L
2023/07/05,21:40,0.533,0.809,0.495,0.976,0.711,0.330,0.569,0.535,��,9.5,�L
2023/07/05,21:50,0.532,0.809,0.493,0.974,0.709,0.331,0.568,0.536,��,10.9,�L
2023/07/05,22:00,0.531,0.809,0.495,0.972,0.710,0.329,0.568,0.535,��,9.2,�L
2023/07/05,22:10,0.531,0.805,0.492,0.975,0.709,0.329,0.569,0.534,��,9.5,�L
2023/07/05,22:20,0.531,0.807,0.493,0.970,0.711,0.328,0.567,0.534,��,9.8,�L
2023/07/05,22:30,0.530,0.809,0.493,0.973,0.710,0.328,0.568,0.536,��쓌,8.9,�L
2023/07/05,22:40,0.529,0.807,0.494,0.972,0.708,0.329,0.568,0.535,��쓌,9.7,�L
2023/07/05,22:50,0.530,0.806,0.493,0.971,0.708,0.329,0.567,0.534,��쓌,10.5,�L
2023/07/05,23:00,0.530,0.805,0.491,0.972,0.707,0.327,0.568,0.534,��쓌,11.7,�L
2023/07/05,23:10,0.528,0.804,0.491,0.972,0.705,0.325,0.567,0.533,��,9.5,�L
2023/07/05,23:20,0.533,0.807,0.495,0.974,0.708,0.327,0.567,0.533,��,9.9,�L
2023/07/05,23:30,0.533,0.809,0.497,0.972,0.708,0.327,0.567,0.534,��,9.9,��
2023/07/05,23:40,0.532,0.806,0.494,0.973,0.707,0.325,0.567,0.532,��,8.0,��
2023/07/05,23:50,0.531,0.804,0.491,0.969,0.707,0.325,0.566,0.535,��쓌,9.3,�L
